Regional Weather Roundup
Issued by NWS Portland, ME

Current Version | Previous Version | Text Only | Print | Product List | Glossary Off
Versions: 1 2 3 4 5 6 7 8 9 10 11 12 13 14 15 16 17 18 19 20 21 22 23 24 25 26 27 28 29 30 31 32 33 34 35 36 37 38 39 40 41 42 43 44 45 46 47 48 49 50
000 ASUS41 KGYX 210810 RWRGYX WEATHER ROUNDUP FOR MAINE AND NEW HAMPSHIRE NATIONAL WEATHER SERVICE GRAY ME 300 AM EST MON JAN 21 2019 MEZ002-005-006-010-012-015-018-020-021-024-026-027-029-210900- MAINE CITY SKY/WX TMP DP RH WIND PRES REMARKS PORTLAND CLOUDY 9 -4 55 NW21G33 29.48R WCI -11 SANFORD FLURRIES 2 -7 66 W14 29.50R WCI -16 BAR HARBOR FLURRIES 13 8 81 NW8G16 29.34R WISCASSET CLOUDY 7 -5 57 NW9G22 29.47R ROCKLAND CLOUDY 12 3 67 NW9G20 29.40R FRYEBURG CLOUDY 4 -6 63 CALM 29.47R LEWISTONAUBURN CLOUDY 3 -7 63 NW13 29.47R WCI -14 AUGUSTA CLOUDY 5 -6 60 NW12G20 29.43R WCI -11 WATERVILLE CLOUDY 10 -1 61 MISG 29.39R BANGOR CLOUDY 13 4 67 NW12 29.37R WCI -1 GREENVILLE N/A 3 -5 69 NW25G37 29.29R WCI -20 MILLINOCKET CLOUDY 13 2 61 N15 29.36R WCI -3 HOULTON SNOW 10 6 84 N14G24 29.30R VSB 1/2 WCI -6 PRESQUE ISLE LGT SNOW 10 6 84 NW15G23 29.35S FOG WCI -7 FRENCHVILLE LGT SNOW 9 2 73 NW14G25 29.34R WCI -7 CARIBOU LGT SNOW 11 5 77 N15 29.33S VSB 3/4 WCI -5 $$ NHZ002-005-008-009-011-012-014-210900- NEW HAMPSHIRE CITY SKY/WX TMP DP RH WIND PRES REMARKS PORTSMOUTH CLOUDY 3 -10 54 W16G23 29.52R WCI -16 ROCHESTER CLOUDY 2 -9 60 W10G18 29.50R WCI -14 NASHUA FAIR 2 -9 60 NW13G18 29.60R WCI -15 MANCHESTER FAIR 3 -11 52 NW17G31 29.57R WCI -17 CONCORD MOCLDY -1 -11 62 NW21 29.58R WCI -24 LACONIA FAIR -3 -12 65 W13G20 29.54R WCI -22 PLYMOUTH FAIR -3 -12 65 W15G25 29.58S WCI -24 BERLIN LGT SNOW -6 -13 71 VRB3 29.55R WHITEFIELD CLOUDY -5 -11 75 CALM 29.61R HAZE JAFFREY FAIR -1 -11 62 W12G21 29.54R WCI -18 KEENE FAIR 0 -10 63 NW9 29.66R LEBANON FAIR -2 -14 56 NW9 29.66R MT WASHINGTON PTCLDY -13 -15 92 NW21 N/A WCI -39 $$ VTZ005-007-008-210900- VERMONT CITY SKY/WX TMP DP RH WIND PRES REMARKS ST JOHNSBURY N/A -4 -11 72 MISG 29.66R MONTPELIER CLOUDY -7 -12 79 NW16G26 29.67R HAZE WCI -29 BURLINGTON LGT SNOW -2 -10 69 NW8 29.82R $$ MAZ007-012-024-CTZ003-RIZ002-NYZ038-NYZ072-210900- SOUTHERN NEW ENGLAND AND NY CITY SKY/WX TMP DP RH WIND PRES REMARKS BOSTON FAIR 7 -7 52 NW21G31 29.59R WCI -13 WORCESTER FAIR -2 -12 62 W17G30 29.54R WCI -23 NANTUCKET CLOUDY 12 4 70 W21G32 29.58R WCI -7 PROVIDENCE FAIR 5 -5 63 NW23G30 29.65R WCI -17 HARTFORD FAIR 0 -12 57 NW17G26 29.75R WCI -21 ALBANY LGT SNOW -3 -13 62 NW16G26 29.88R WCI -24 NEW YORK CITY FAIR 12 0 58 NW33G48 29.86R WCI -10 $$ ANZ081-ANZ082-ANZ150-NHZ014-MEZ023>029-210900- COASTAL MARINE OBSERVATIONS STATION/POSITION TIME TEMP WIND PRES WAVE AIR SEA DIR/SP/G HT/PER (UTC) (F) (DEG/KT/KT) (MB) (FT/S) MOUNT DESERT ROC 0800 18 310/ 27/ 30 993.1R MATINICUS ROCK 0800 16 310/ 20/ 25 995.3R ISLE OF SHOALS 0800 5 300/ 22/ 25 999.5R CASHES LEDGE BUO 0750 17 40 996.0R 10/11 $$ .............KEY.............. WCI - WIND CHILL TC - TEMPERATURE IN CELSIUS VSB - VISIBILITY IN MILES HX - HEAT INDEX FAIR- INDICATES FEW OR NO CLOUDS BELOW 12,000 FT, WITH NO SIGNIFICANT WEATHER AND/OR OBSTRUCTIONS TO VISIBILITY.

USA.gov is the U.S. government's official web portal to all federal, state and local government web resources and services.